Temperature
3 3 3 3 3 2 2 2 2 2 2 3 3 3 3 3 2 2 2 2 2 2 2 2 2 2 2 2 2 2 2 2 2 2 2 2 2 3 3 3 3 3 3
3 2 2 2 2 2 2 2 2 2 2 2 2 2 2 2 2 2 2 1 1 1 1 1 2 2 2 2 1 1 1 1 1 1 2 2 2 2 2 2 3 3 3
2 2 2 2 2 2 2 2 2 2 2 2 2 2 2 1 1 1 1 1 1 1 1 1 1 1 1 1 1 1 1 1 1 1 1 1 1 1 1 2 2 2 2
2 2 2 2 2 2 1 1 1 1 1 1 1 1 1 1 1 1 1 1 1 1 1 1 1 1 1 1 1 1 1 1 1 1 1 1 1 1 1 1 1 2 2
2 2 2 2 2 2 1 1 1 1 1 1 1 1 1 1 1 0 0 1 1 1 1 1 1 1 0 0 0 0 1 1 0 0 0 0 0 0 0 0 1 1 1
1 1 1 1 1 1 1 1 1 1 1 1 1 1 0 0 0 0 0 0 0 0 0 0 -0 -0 -0 -0 -0 -0 0 0 0 0 -0 0 0 0 0 0 0 0 0
1 1 1 1 1 1 1 1 1 1 0 0 0 0 0 0 0 0 0 -0 -0 -0 -0 -0 -1 -1 -1 -1 -1 -1 -0 -0 -0 -0 -0 -0 -0 -0 -0 -0 -0 -0 -0
1 1 1 1 0 0 0 0 0 0 0 0 -0 -0 -0 -0 -0 -0 -0 -0 -0 -1 -1 -1 -1 -1 -1 -1 -1 -1 -1 -1 -1 -0 -0 -0 -0 -0 -0 -0 -1 -1 -0
0 0 0 0 0 -0 -0 -0 -0 -0 -0 -0 -1 -1 -1 -1 -1 -1 -1 -1 -1 -1 -1 -1 -1 -1 -1 -1 -1 -1 -1 -1 -1 -1 -1 -1 -0 -0 -1 -1 -1 -1 -1
0 -0 -0 -0 -0 -0 -0 -0 -1 -1 -1 -1 -1 -1 -1 -1 -1 -1 -1 -1 -1 -1 -1 -1 -1 -2 -2 -2 -2 -2 -2 -1 -1 -1 -1 -1 -1 -1 -1 -1 -1 -1 -1
-0 -0 -0 -0 -1 -1 -1 -1 -1 -1 -1 -1 -1 -1 -2 -2 -2 -2 -2 -2 -2 -2 -2 -2 -2 -2 -2 -2 -2 -2 -2 -2 -2 -2 -1 -1 -1 -1 -1 -1 -1 -2 -2
-0 -0 -0 -1 -1 -1 -1 -1 -1 -1 -1 -1 -2 -2 -2 -2 -2 -2 -2 -2 -2 -2 -2 -2 -2 -2 -2 -2 -2 -2 -2 -2 -2 -2 -2 -2 -2 -2 -2 -2 -2 -2 -2
-0 -1 -1 -1 -1 -1 -1 -1 -1 -2 -2 -2 -2 -2 -2 -2 -2 -2 -2 -2 -2 -3 -3 -3 -3 -3 -3 -3 -3 -2 -2 -2 -2 -2 -2 -2 -2 -2 -2 -2 -2 -2 -2
-1 -1 -1 -1 -1 -1 -1 -2 -2 -2 -2 -2 -3 -3 -3 -3 -3 -3 -3 -3 -3 -3 -3 -3 -3 -3 -3 -3 -3 -3 -3 -3 -3 -3 -3 -3 -3 -2 -2 -2 -2 -2 -2
-1 -1 -1 -1 -1 -1 -1 -2 -2 -2 -2 -2 -3 -3 -3 -3 -3 -3 -3 -3 -3 -3 -3 -4 -4 -4 -4 -4 -3 -3 -3 -3 -3 -3 -3 -3 -3 -3 -3 -3 -3 -3 -3
-1 -1 -1 -1 -1 -2 -2 -2 -2 -2 -2 -3 -3 -3 -3 -3 -4 -4 -4 -4 -4 -4 -4 -4 -4 -4 -4 -4 -4 -4 -4 -4 -4 -4 -3 -3 -3 -3 -3 -3 -3 -3 -3
-1 -1 -1 -1 -2 -2 -2 -2 -2 -2 -3 -3 -3 -3 -4 -4 -4 -4 -4 -4 -4 -4 -4 -4 -4 -4 -4 -4 -4 -4 -4 -4 -4 -4 -4 -4 -4 -4 -4 -4 -4 -4 -4
-1 -1 -2 -2 -2 -2 -2 -3 -3 -3 -3 -3 -3 -4 -4 -4 -4 -4 -4 -4 -4 -4 -4 -4 -4 -4 -4 -4 -4 -4 -4 -4 -4 -4 -4 -4 -4 -4 -4 -4 -4 -4 -4
-2 -2 -2 -2 -2 -2 -3 -3 -3 -3 -3 -3 -4 -4 -4 -4 -4 -5 -5 -5 -5 -5 -5 -5 -5 -5 -5 -4 -4 -4 -4 -4 -4 -4 -4 -4 -4 -4 -4 -4 -4 -4 -4
-2 -2 -2 -2 -2 -3 -3 -3 -3 -3 -4 -4 -4 -4 -4 -4 -5 -5 -5 -5 -5 -5 -5 -5 -5 -5 -5 -5 -5 -5 -4 -4 -4 -4 -4 -4 -4 -4 -4 -4 -4 -4 -4
-2 -2 -2 -2 -3 -3 -3 -3 -4 -4 -4 -4 -4 -4 -5 -5 -5 -5 -5 -5 -5 -5 -5 -5 -5 -5 -5 -4 -5 -5 -5 -5 -5 -5 -5 -4 -4 -4 -5 -4 -4 -4 -4
-2 -2 -3 -3 -3 -3 -3 -3 -4 -4 -4 -4 -4 -5 -5 -5 -5 -5 -5 -5 -5 -5 -5 -5 -5 -5 -5 -5 -5 -5 -5 -5 -5 -5 -5 -5 -5 -5 -5 -5 -5 -5 -4
-3 -3 -3 -3 -3 -3 -4 -4 -4 -4 -4 -4 -4 -5 -5 -5 -5 -5 -5 -5 -5 -5 -5 -5 -5 -5 -5 -5 -5 -5 -5 -5 -5 -5 -5 -5 -5 -5 -5 -5 -5 -5 -5
-3 -3 -3 -3 -4 -4 -4 -4 -4 -4 -4 -4 -5 -5 -5 -5 -5 -5 -5 -5 -5 -5 -5 -5 -5 -5 -5 -5 -5 -5 -5 -5 -5 -5 -5 -5 -5 -5 -5 -5 -5 -5 -5
-3 -3 -4 -4 -4 -4 -4 -4 -4 -5 -5 -5 -5 -5 -5 -5 -5 -5 -5 -5 -5 -5 -5 -5 -5 -5 -5 -5 -5 -5 -5 -5 -5 -5 -5 -5 -5 -5 -5 -5 -5 -5 -5
-4 -4 -4 -4 -4 -4 -5 -5 -5 -5 -5 -5 -5 -5 -5 -5 -5 -5 -5 -5 -5 -5 -5 -5 -5 -5 -6 -5 -6 -6 -5 -5 -6 -6 -6 -6 -6 -6 -5 -5 -6 -6 -5
Wind_Speed
2 1 1 2 2 2 2 3 3 3 3 3 3 3 3 3 2 2 2 3 3 2 2 3 3 2 2 2 2 2 3 3 4 4 2 2 3 3 3 3 4 3 4
2 1 2 2 1 2 2 2 2 2 3 3 3 3 3 3 2 3 3 3 3 3 3 3 3 3 3 2 2 3 3 3 3 4 4 2 3 2 2 2 3 3 3
2 2 2 2 2 2 2 2 2 2 3 3 3 3 3 3 3 3 3 3 3 3 3 3 3 3 3 3 3 3 2 3 2 3 4 3 2 2 2 3 2 2 4
2 2 2 2 2 2 2 2 2 2 2 3 3 3 3 3 3 3 3 3 3 3 3 3 3 3 3 3 3 3 3 2 2 2 3 3 2 2 2 2 2 2 3
2 2 2 2 1 1 2 2 2 2 3 3 3 3 3 3 3 3 3 3 2 3 3 3 3 3 3 3 2 2 2 2 2 2 3 3 2 2 2 2 2 2 2
2 2 2 2 2 2 2 2 2 3 3 3 2 3 3 3 4 4 3 3 2 3 3 3 2 3 3 4 4 3 3 2 2 3 3 3 3 2 2 2 2 2 2
1 2 2 2 2 2 2 2 2 3 3 2 2 2 2 3 4 4 3 2 2 2 3 3 2 2 3 2 2 3 3 4 4 3 4 4 3 3 2 2 2 2 3
2 2 2 1 2 2 1 2 2 2 2 2 3 2 2 3 4 3 4 2 2 2 2 1 1 1 2 1 0 1 1 2 3 3 3 4 4 3 3 3 2 1 1
2 2 2 2 2 2 2 2 2 2 2 2 2 2 2 3 3 3 2 1 1 1 1 1 1 1 1 1 1 1 2 2 3 3 3 4 4 4 2 1 1 0 2
2 2 2 2 2 2 2 2 2 2 3 2 2 2 2 2 2 2 2 1 1 1 1 1 2 1 2 2 1 1 2 2 2 2 2 3 2 1 1 1 2 2 1
1 1 1 1 2 2 2 2 2 2 2 1 2 2 1 1 2 2 2 1 1 1 1 1 1 2 2 3 2 1 3 2 1 1 1 1 1 1 1 1 1 1 2
1 1 1 2 2 2 2 2 1 1 1 2 2 1 1 1 2 2 2 2 1 1 1 1 1 2 2 2 2 2 2 2 1 1 1 1 1 1 1 1 2 2 2
1 1 1 2 1 1 1 2 1 1 1 2 2 2 1 1 2 3 3 3 3 1 1 1 1 1 2 1 2 3 2 1 1 1 1 1 1 1 1 1 2 2 3
1 2 1 1 1 1 1 1 1 2 2 2 2 2 2 1 1 1 1 2 2 1 1 1 1 1 1 2 2 2 1 1 1 1 1 1 1 1 1 1 1 1 2
2 2 1 1 1 1 1 1 2 2 3 3 3 2 2 2 3 3 2 2 2 2 1 1 1 1 1 1 1 1 1 1 1 1 1 1 1 1 1 1 1 1 1
2 2 1 1 1 1 1 2 2 2 3 3 3 3 2 3 3 3 3 3 3 2 1 1 2 2 1 1 1 1 1 1 1 1 1 1 1 1 1 1 1 1 1
3 2 1 1 1 1 1 1 2 2 2 2 3 3 2 2 2 3 2 2 2 2 1 1 1 2 2 2 2 2 2 2 1 1 1 1 1 1 1 1 1 1 1
2 2 2 2 2 1 1 1 1 1 2 2 2 3 2 2 2 2 2 1 1 1 1 1 2 2 2 2 2 2 1 1 1 1 1 1 1 1 1 1 1 1 1
2 2 2 2 1 1 1 1 1 2 1 1 1 1 2 2 2 2 1 1 1 1 1 1 2 2 2 2 1 2 2 2 1 1 1 1 1 1 1 1 1 2 1
2 2 1 1 1 1 1 1 2 2 1 1 2 1 1 0 0 1 1 1 1 1 1 2 2 2 2 1 1 1 1 1 1 1 1 1 1 1 1 1 1 1 1
2 2 2 1 2 2 1 2 2 2 1 1 1 1 1 1 1 1 1 1 2 2 2 2 2 2 2 1 1 2 2 1 1 1 1 1 1 1 1 1 1 1 0
2 2 2 2 2 1 1 1 1 1 1 1 1 1 2 1 1 1 1 1 1 1 1 2 2 2 2 2 2 2 2 2 2 2 1 1 1 1 1 1 1 0 0
2 2 1 1 1 1 1 1 1 1 1 1 1 1 1 1 1 1 1 1 1 1 1 1 2 2 2 2 2 2 3 3 2 2 2 1 1 1 1 1 1 1 0
2 2 2 1 1 1 1 1 1 1 1 1 1 1 1 1 1 1 1 1 1 1 1 1 2 2 2 2 2 2 2 3 2 3 2 2 2 1 1 1 1 1 1
2 2 2 2 2 1 1 1 1 1 1 1 1 1 1 1 1 1 1 0 0 0 1 1 1 2 2 2 2 2 3 3 3 2 2 2 2 2 1 1 1 1 1
2 2 1 1 1 1 1 2 1 1 1 1 1 1 1 1 1 1 1 0 0 0 1 1 1 2 2 2 2 3 3 3 3 2 2 2 2 2 1 1 1 1 1
Wind_Direction
224 228 246 256 263 272 280 278 275 278 276 271 268 266 262 257 245 240 241 250 231 238 248 239 241 244 235 229 232 240 248 247 265 286 284 283 292 296 307 314 314 307 310
219 229 241 239 249 265 277 287 287 285 282 275 273 267 263 256 247 245 245 246 224 230 240 244 252 251 243 235 234 238 243 245 253 276 287 285 285 289 300 307 323 329 324
205 219 234 239 244 266 279 288 295 291 289 285 274 265 263 255 247 248 247 251 231 232 236 239 250 246 245 241 237 240 245 256 254 261 279 286 288 292 310 321 327 329 330
209 216 228 240 247 263 282 284 285 287 281 275 268 268 265 258 247 249 248 252 237 236 237 237 241 242 246 242 242 240 243 246 251 253 270 282 287 293 303 309 316 325 328
216 219 234 245 250 265 280 281 279 284 279 269 271 273 268 255 245 251 250 252 238 239 243 245 245 262 275 268 260 251 244 239 247 253 261 278 281 274 282 293 300 313 328
209 223 234 239 244 253 268 276 277 280 278 272 271 270 268 269 267 260 255 245 233 229 240 246 247 251 269 282 286 293 283 249 242 250 258 259 271 273 289 286 284 301 303
226 239 236 237 249 247 255 263 265 270 277 272 269 274 273 279 279 274 273 250 226 235 243 238 240 256 267 266 292 303 313 304 280 261 253 256 260 258 262 265 270 284 279
227 244 243 234 254 256 255 268 272 276 279 271 265 266 270 283 284 269 278 240 219 233 242 237 213 221 251 247 275 306 299 296 283 273 258 260 260 248 234 237 251 288 304
232 244 243 225 245 251 251 263 265 265 270 268 270 265 262 283 283 267 264 233 218 237 242 236 214 217 294 303 279 283 300 309 318 303 284 278 285 273 256 198 177 179 301
237 247 248 228 240 252 245 251 261 255 253 254 262 258 249 271 287 276 257 233 222 242 260 247 233 247 285 307 278 239 273 294 323 333 335 332 337 347 340 212 204 220 274
240 249 254 243 247 253 249 245 251 250 249 253 259 264 254 273 276 280 271 228 226 229 242 260 256 277 283 293 292 259 271 293 300 302 313 322 336 359 351 344 303 239 260
208 233 254 258 261 267 247 256 242 222 224 243 253 271 268 267 273 275 293 306 287 220 245 254 258 293 288 286 292 306 305 310 309 303 303 306 321 332 340 350 6 352 310
200 233 258 267 266 272 244 248 235 209 218 238 240 248 268 279 272 279 285 305 316 275 243 262 298 299 313 295 314 335 328 301 277 290 290 299 308 302 331 11 33 20 5
214 234 244 248 270 275 245 226 214 212 222 230 240 246 253 254 256 266 259 272 290 276 249 249 273 294 317 328 329 324 321 309 288 276 294 315 335 342 333 338 335 354 3
219 239 247 244 249 262 259 243 237 231 226 222 226 229 230 240 258 278 278 261 246 246 223 180 223 230 257 285 293 301 297 309 315 308 292 313 330 333 334 357 356 352 347
213 231 238 232 252 268 302 327 307 268 267 259 258 257 257 253 264 269 270 267 251 241 198 205 226 224 233 246 253 262 268 274 277 286 294 294 284 295 326 342 346 353 338
206 219 228 230 242 253 260 268 307 315 292 265 260 267 266 255 250 252 256 254 239 215 194 216 229 233 241 247 248 250 253 261 257 259 262 266 282 304 316 315 320 338 337
207 219 221 216 222 229 234 246 250 266 293 297 273 264 267 263 252 239 239 226 229 215 210 223 232 237 247 243 238 243 254 262 254 250 244 246 255 276 279 285 298 311 322
207 213 214 204 213 221 226 239 250 254 268 284 288 273 269 258 232 223 208 202 220 237 235 236 235 234 243 242 245 242 237 242 248 244 243 241 249 261 269 282 302 321 337
214 227 219 206 214 228 228 233 243 247 261 270 256 253 256 239 239 244 239 228 231 243 244 240 237 230 229 231 239 234 229 229 231 237 241 241 246 250 251 255 262 296 320
199 209 222 220 216 223 228 230 233 238 247 266 263 244 224 215 236 247 250 243 240 239 240 247 248 230 227 228 230 230 229 230 230 232 238 248 254 263 265 255 261 270 325
189 192 200 215 219 221 234 231 224 225 232 251 283 249 236 232 235 248 256 256 254 241 234 239 245 236 225 223 221 216 219 226 229 231 226 227 241 253 248 241 245 219 120
175 182 194 208 212 244 258 228 217 220 230 237 237 237 239 245 247 258 266 269 259 253 245 238 238 244 242 227 221 214 212 221 228 227 224 219 221 229 236 237 221 200 240
175 182 189 198 204 210 226 241 234 238 243 248 240 231 232 239 256 269 267 264 263 266 247 233 233 239 242 233 227 220 219 220 221 213 210 207 211 219 225 225 221 197 193
176 182 189 199 208 218 230 239 242 241 243 254 256 251 241 237 253 272 263 251 243 263 278 255 233 229 238 236 222 214 215 222 225 217 190 183 185 196 205 198 186 172 182
185 184 188 194 204 211 224 236 241 244 243 254 259 257 247 247 260 267 260 241 260 291 296 269 247 243 250 240 223 218 218 215 214 213 179 168 175 184 181 181 188 181 161
Height
1445 1445 1445 1445 1445 1445 1445 1444 1444 1444 1443 1443 1443 1442 1442 1442 1442 1442 1442 1442 1442 1442 1443 1443 1443 1444 1444 1445 1445 1445 1446 1446 1444 1442 1443 1443 1442 1442 1441 1441 1440 1440 1439
1442 1442 1442 1442 1442 1442 1442 1442 1441 1441 1440 1439 1439 1439 1439 1438 1438 1438 1438 1438 1439 1439 1439 1439 1440 1440 1441 1441 1441 1441 1442 1442 1441 1439 1439 1439 1439 1439 1438 1437 1437 1436 1435
1440 1439 1439 1439 1439 1439 1439 1438 1438 1438 1437 1436 1436 1435 1435 1435 1435 1435 1435 1435 1435 1435 1436 1436 1436 1437 1437 1437 1438 1438 1438 1438 1438 1437 1435 1436 1435 1435 1434 1434 1434 1433 1432
1436 1436 1436 1436 1436 1436 1436 1435 1435 1435 1434 1433 1433 1432 1432 1432 1432 1431 1432 1432 1432 1432 1432 1433 1433 1433 1433 1434 1434 1434 1434 1434 1434 1434 1433 1432 1432 1432 1431 1430 1430 1429 1429
1432 1432 1433 1433 1433 1433 1433 1433 1432 1432 1431 1430 1430 1429 1429 1429 1429 1428 1428 1428 1428 1428 1429 1429 1430 1430 1430 1430 1431 1431 1431 1431 1431 1430 1430 1429 1428 1428 1428 1427 1427 1426 1426
1429 1429 1430 1430 1430 1430 1429 1429 1429 1428 1428 1427 1427 1426 1426 1426 1426 1425 1425 1425 1425 1425 1425 1426 1426 1426 1426 1427 1427 1428 1428 1428 1427 1427 1426 1426 1425 1425 1425 1425 1424 1423 1422
1425 1426 1426 1426 1426 1426 1426 1426 1426 1425 1425 1424 1424 1423 1423 1422 1422 1422 1422 1422 1422 1422 1422 1423 1423 1423 1423 1423 1424 1424 1424 1425 1425 1424 1423 1423 1423 1423 1422 1422 1422 1421 1420
1422 1422 1423 1423 1423 1423 1423 1423 1423 1422 1422 1421 1421 1420 1420 1419 1419 1419 1419 1420 1419 1419 1420 1420 1420 1420 1420 1421 1421 1420 1421 1421 1421 1421 1421 1420 1420 1420 1420 1420 1419 1418 1418
1419 1419 1419 1419 1419 1419 1419 1419 1419 1419 1418 1418 1418 1418 1417 1417 1417 1417 1417 1417 1417 1417 1417 1417 1417 1418 1418 1418 1418 1417 1417 1417 1418 1418 1418 1418 1417 1417 1417 1417 1416 1415 1414
1417 1417 1417 1416 1416 1416 1415 1416 1416 1416 1415 1415 1415 1415 1415 1415 1415 1415 1415 1414 1414 1414 1415 1415 1415 1415 1416 1416 1415 1415 1414 1414 1414 1415 1415 1415 1415 1414 1414 1414 1414 1413 1411
1414 1414 1414 1413 1413 1413 1413 1413 1413 1413 1413 1412 1412 1413 1413 1413 1413 1413 1413 1412 1412 1412 1412 1412 1412 1413 1413 1413 1413 1413 1413 1413 1412 1412 1412 1412 1412 1412 1411 1411 1411 1411 1410
1412 1411 1411 1410 1410 1410 1410 1410 1410 1410 1410 1410 1410 1410 1410 1410 1410 1410 1410 1410 1410 1410 1410 1410 1410 1411 1411 1411 1411 1410 1411 1411 1410 1409 1409 1409 1409 1409 1409 1409 1408 1408 1408
1409 1409 1408 1408 1408 1407 1407 1407 1407 1407 1407 1407 1407 1407 1407 1407 1407 1407 1407 1408 1408 1408 1408 1408 1408 1408 1408 1408 1408 1408 1408 1408 1408 1407 1406 1406 1407 1406 1406 1406 1406 1405 1405
1407 1406 1406 1406 1405 1405 1405 1404 1404 1404 1404 1404 1404 1404 1404 1404 1404 1404 1404 1405 1405 1405 1405 1406 1406 1406 1406 1406 1406 1406 1406 1406 1405 1405 1405 1404 1404 1404 1403 1403 1403 1402 1401
1404 1404 1404 1403 1403 1402 1402 1402 1402 1402 1402 1402 1401 1401 1401 1401 1401 1401 1402 1402 1402 1402 1403 1403 1403 1403 1403 1403 1403 1404 1404 1404 1403 1403 1403 1402 1402 1402 1401 1401 1401 1400 1399
1401 1401 1401 1401 1400 1400 1399 1399 1399 1399 1399 1399 1399 1399 1398 1399 1399 1399 1399 1399 1400 1400 1400 1400 1400 1400 1401 1401 1401 1402 1402 1402 1401 1401 1401 1400 1400 1400 1399 1399 1399 1398 1397
1399 1398 1398 1398 1398 1397 1397 1396 1396 1397 1397 1397 1396 1396 1396 1396 1396 1396 1397 1397 1397 1398 1398 1397 1398 1398 1399 1399 1399 1400 1400 1400 1400 1399 1399 1399 1399 1398 1398 1398 1397 1397 1396
1396 1396 1396 1396 1395 1395 1395 1394 1394 1393 1393 1393 1394 1394 1393 1393 1393 1394 1394 1395 1395 1395 1395 1395 1396 1396 1397 1397 1397 1398 1398 1398 1398 1397 1397 1397 1397 1397 1397 1396 1396 1395 1394
1393 1393 1393 1393 1393 1393 1392 1392 1392 1392 1391 1391 1391 1391 1391 1391 1391 1392 1392 1392 1392 1392 1392 1393 1393 1394 1394 1395 1395 1396 1396 1396 1395 1395 1395 1395 1395 1395 1395 1395 1394 1394 1393
1391 1391 1391 1391 1390 1390 1390 1390 1389 1389 1389 1388 1388 1388 1388 1389 1389 1389 1389 1389 1389 1390 1390 1391 1391 1391 1392 1392 1393 1393 1393 1393 1393 1393 1393 1393 1394 1394 1394 1393 1393 1393 1392
1388 1388 1389 1388 1388 1388 1387 1387 1387 1387 1387 1386 1386 1386 1387 1387 1386 1386 1386 1387 1387 1387 1388 1388 1389 1389 1390 1390 1390 1390 1390 1391 1391 1391 1391 1392 1392 1392 1392 1392 1392 1391 1391
1385 1385 1386 1386 1386 1385 1385 1385 1385 1385 1385 1385 1384 1385 1385 1385 1385 1384 1384 1384 1385 1385 1386 1386 1386 1387 1387 1388 1388 1388 1388 1388 1389 1389 1389 1390 1390 1390 1390 1390 1390 1390 1390
1383 1383 1383 1383 1384 1383 1383 1383 1383 1383 1383 1383 1383 1383 1383 1383 1383 1383 1382 1383 1383 1383 1383 1384 1384 1384 1385 1385 1385 1386 1386 1386 1386 1387 1387 1388 1388 1388 1388 1388 1388 1388 1388
1380 1380 1381 1381 1381 1381 1381 1381 1381 1381 1381 1381 1381 1381 1381 1381 1381 1381 1381 1381 1381 1381 1381 1381 1381 1382 1382 1383 1383 1383 1383 1384 1384 1385 1385 1386 1386 1386 1387 1387 1387 1387 1387
1378 1378 1378 1379 1379 1379 1379 1379 1379 1379 1379 1379 1379 1379 1379 1379 1379 1379 1379 1379 1379 1379 1379 1379 1379 1379 1379 1380 1380 1381 1381 1382 1382 1383 1383 1384 1385 1385 1385 1386 1386 1386 1386
1376 1376 1376 1377 1377 1377 1377 1377 1377 1377 1377 1377 1377 1377 1377 1377 1377 1377 1377 1377 1377 1377 1377 1377 1377 1377 1377 1377 1378 1378 1379 1379 1380 1380 1381 1382 1383 1383 1384 1385 1385 1385 1386